sat.trackr.live / text

‹ back to catalog

ONEWEB-0297

NORAD 49086 · 2021-075M

PAYLOAD ACTIVE UNKNOWN

§ Identity

Operator
Country
UK
Launch date
2021-08-21
Launch site
TYMSC
Launch vehicle
Mass (kg)
RCS (m²)

Purposes: comms

External: N2YO · Heavens-Above · Gunter

§ Orbital elements

Epoch: 2026-09-15T16:21:38.908512Z

Period
109.72 min
Inclination
87.8979°
Eccentricity
0.0001873
Mean motion
13.12441774 rev/d
Perigee alt
1,212.3 km
Apogee alt
1,215.1 km
Semi-major
7,591.9 km
B*
-2.6620e-4
RAAN
332.7052°
Arg perigee
102.9701°
Mean anomaly
257.1637°
Rev number
24,705

§ Raw data

ONEWEB-02971 49086U 21075M   26258.68170033 -.00000083  00000+0 -26620-3 0  99942 49086  87.8979 332.7052 0001873 102.9701 257.1637 13.12441774247051

JSON: /api/v1/satellites/49086 · /tle

For live sub-satellite position, see the globe view (requires WebGL).

§ Visibility from observer

Set your observer location to see the next 7 days of passes ≥ 10°. The values pass through the URL so the page stays shareable.

No JS? Fill the form by hand. The geolocation button needs JavaScript.